TimeEST,TemperatureF,Dew PointF,Humidity,Sea Level PressureIn,VisibilityMPH,Wind Direction,Wind SpeedMPH,Gust SpeedMPH,PrecipitationIn,Events,Conditions,WindDirDegrees,DateUTC
12:53 AM,19.0,12.9,77,30.37,10.0,Calm,Calm,-,N/A,,Clear,0,2013-02-02 05:53:00
1:53 AM,19.0,12.9,77,30.35,10.0,Calm,Calm,-,N/A,,Mostly Cloudy,0,2013-02-02 06:53:00
2:53 AM,19.0,12.9,77,30.34,10.0,Calm,Calm,-,N/A,,Scattered Clouds,0,2013-02-02 07:53:00
3:53 AM,19.0,12.9,77,30.32,10.0,Calm,Calm,-,N/A,,Mostly Cloudy,0,2013-02-02 08:53:00
4:53 AM,19.9,14.0,78,30.31,10.0,Calm,Calm,-,N/A,,Overcast,0,2013-02-02 09:53:00
5:53 AM,21.0,15.1,78,30.31,10.0,SSW,3.5,-,N/A,,Overcast,200,2013-02-02 10:53:00
7:53 AM,23.0,15.1,72,30.28,10.0,South,5.8,-,N/A,,Overcast,190,2013-02-02 12:53:00
8:53 AM,25.0,12.9,60,30.28,10.0,SSW,6.9,-,N/A,,Overcast,210,2013-02-02 13:53:00
9:29 AM,24.8,15.8,69,30.24,3.0,SW,5.8,-,0.00,Snow,Light Snow,220,2013-02-02 14:29:00
9:40 AM,26.6,15.8,64,30.23,9.0,SW,5.8,-,0.00,,Overcast,220,2013-02-02 14:40:00
9:53 AM,26.1,14.0,60,30.27,10.0,SSW,6.9,-,0.00,,Overcast,210,2013-02-02 14:53:00
10:27 AM,26.6,17.6,69,30.21,4.0,SW,5.8,18.4,0.00,Snow,Light Snow,230,2013-02-02 15:27:00
10:53 AM,26.1,19.0,75,30.24,2.5,SSW,8.1,18.4,0.00,Snow,Light Snow,210,2013-02-02 15:53:00
11:02 AM,24.8,19.4,80,30.18,1.0,SSW,8.1,-,0.00,Snow,Light Snow,210,2013-02-02 16:02:00
11:09 AM,24.8,21.2,86,30.18,0.8,SSW,11.5,-,0.00,Snow,Light Snow,200,2013-02-02 16:09:00
11:25 AM,24.8,21.2,86,30.17,1.2,South,6.9,16.1,0.00,Snow,Light Snow,190,2013-02-02 16:25:00
11:50 AM,24.8,21.2,86,30.16,1.2,South,9.2,-,0.01,Snow,Light Snow,190,2013-02-02 16:50:00
11:53 AM,25.0,21.9,88,30.20,1.2,South,8.1,-,0.01,Snow,Light Snow,180,2013-02-02 16:53:00
12:18 PM,26.6,23.0,86,30.13,3.0,South,10.4,-,0.00,Snow,Light Snow,180,2013-02-02 17:18:00
12:35 PM,26.6,23.0,86,30.12,9.0,South,4.6,-,0.00,,Overcast,180,2013-02-02 17:35:00
12:53 PM,27.0,24.1,89,30.15,10.0,South,8.1,-,0.00,,Overcast,190,2013-02-02 17:53:00
1:31 PM,28.4,24.8,86,30.07,10.0,South,8.1,-,N/A,,Overcast,190,2013-02-02 18:31:00
1:53 PM,30.0,25.0,82,30.10,10.0,SSW,6.9,-,N/A,,Overcast,210,2013-02-02 18:53:00
2:53 PM,34.0,28.0,79,30.07,10.0,SW,8.1,-,N/A,,Mostly Cloudy,230,2013-02-02 19:53:00
3:19 PM,35.6,28.4,75,30.02,10.0,SW,5.8,-,N/A,,Overcast,220,2013-02-02 20:19:00
3:53 PM,36.0,28.0,73,30.05,10.0,SW,9.2,-,N/A,,Overcast,230,2013-02-02 20:53:00
4:44 PM,35.6,28.4,75,30.01,10.0,SW,8.1,-,N/A,,Overcast,230,2013-02-02 21:44:00
4:53 PM,36.0,28.0,73,30.05,10.0,SW,8.1,-,N/A,,Overcast,220,2013-02-02 21:53:00
5:41 PM,33.8,28.4,81,30.02,3.0,SW,6.9,-,0.00,Snow,Light Snow,220,2013-02-02 22:41:00
5:48 PM,33.8,30.2,87,30.02,1.8,SW,5.8,-,0.00,Snow,Light Snow,220,2013-02-02 22:48:00
5:53 PM,33.1,30.0,89,30.05,1.5,SW,4.6,-,0.00,Snow,Light Snow,220,2013-02-02 22:53:00
6:13 PM,33.8,30.2,87,30.02,2.5,SW,5.8,-,0.01,Snow,Light Snow,220,2013-02-02 23:13:00
6:20 PM,32.0,30.2,93,30.02,1.8,SW,5.8,-,0.01,Snow,Light Snow,230,2013-02-02 23:20:00
6:23 PM,32.0,30.2,93,30.02,2.0,SW,6.9,-,0.01,Snow,Light Snow,230,2013-02-02 23:23:00
6:30 PM,32.0,30.2,93,30.03,5.0,WSW,8.1,-,0.01,Snow,Light Snow,240,2013-02-02 23:30:00
6:53 PM,33.1,30.0,89,30.05,10.0,SW,9.2,-,0.01,,Overcast,220,2013-02-02 23:53:00
7:25 PM,33.8,30.2,87,30.03,10.0,WSW,9.2,-,N/A,,Overcast,240,2013-02-03 00:25:00
7:43 PM,33.8,30.2,87,30.04,10.0,WSW,6.9,-,N/A,,Overcast,240,2013-02-03 00:43:00
7:53 PM,33.1,30.0,89,30.08,10.0,WSW,8.1,-,N/A,,Overcast,240,2013-02-03 00:53:00
8:53 PM,33.1,30.0,89,30.08,10.0,WSW,9.2,-,N/A,,Overcast,250,2013-02-03 01:53:00
9:42 PM,33.8,30.2,87,30.06,10.0,WSW,9.2,-,N/A,,Overcast,240,2013-02-03 02:42:00
9:53 PM,33.1,30.0,89,30.09,10.0,WSW,9.2,-,N/A,,Overcast,240,2013-02-03 02:53:00
10:12 PM,33.8,30.2,87,30.06,10.0,WSW,9.2,-,N/A,,Overcast,250,2013-02-03 03:12:00
10:45 PM,33.8,30.2,87,30.04,10.0,WSW,9.2,-,N/A,,Overcast,250,2013-02-03 03:45:00
10:53 PM,33.1,30.0,89,30.07,10.0,WSW,8.1,-,N/A,,Overcast,250,2013-02-03 03:53:00
11:53 PM,33.1,28.9,85,30.08,7.0,West,9.2,-,0.00,Snow,Light Snow,260,2013-02-03 04:53:00